CW4135 Weather Reports


time (UTC)temp
C
wind
direction
speed
KPH
gust
KPH
rain 1hr
cm
rain 24hr
cm
rain mn
cm
humidity
%
barometer
mb
20260507185328 18 89 9.7 19.3 0.00 0.00 0.00 60 1019.2
20260507184326 18 128 6.4 22.5 0.00 0.00 0.00 60 1019.3
20260507183321 18 88 9.7 20.9 0.00 0.00 0.00 59 1019.1
20260507182339 18 126 9.7 22.5 0.00 0.00 0.00 59 1019.2
20260507181334 18 98 11.3 20.9 0.00 0.00 0.00 58 1019.4
20260507180329 18 132 12.9 22.5 0.00 0.00 0.00 59 1019.4
20260507175324 18 115 6.4 22.5 0.00 0.00 0.00 59 1019.4
20260507174323 18 129 11.3 24.1 0.00 0.00 0.00 58 1019.5
20260507173321 18 101 14.5 24.1 0.00 0.00 0.00 58 1019.6
20260507172339 17 139 9.7 22.5 0.00 0.00 0.00 58 1019.5
20260507171337 17 105 14.5 22.5 0.00 0.00 0.00 58 1019.7
20260507170336 17 143 6.4 22.5 0.00 0.00 0.00 59 1019.8
20260507165333 17 113 9.7 20.9 0.00 0.00 0.00 58 1020.0
20260507164335 16 134 12.9 25.7 0.00 0.00 0.00 59 1020.0
20260507163330 16 130 12.9 25.7 0.00 0.00 0.00 59 1020.0
20260507162325 16 126 9.7 24.1 0.00 0.00 0.00 60 1020.2
20260507161339 16 122 11.3 25.7 0.00 0.00 0.00 61 1020.3
20260507160339 15 115 12.9 25.7 0.00 0.00 0.00 61 1020.3
20260507155335 15 98 11.3 25.7 0.00 0.00 0.00 62 1020.1
20260507154333 15 125 11.3 24.1 0.00 0.00 0.00 62 1020.1
20260507153332 15 90 16.1 22.5 0.00 0.00 0.00 62 1020.3
20260507152326 15 130 17.7 25.7 0.00 0.00 0.00 63 1020.2
20260507151321 15 125 9.7 22.5 0.00 0.00 0.00 62 1020.3
20260507150336 15 133 9.7 25.7 0.00 0.00 0.00 59 1020.1
20260507145335 14 115 9.7 20.9 0.00 0.00 0.00 60 1020.2
20260507144330 14 121 11.3 20.9 0.00 0.00 0.00 61 1020.2
20260507143325 13 130 12.9 20.9 0.00 0.00 0.00 62 1020.2
20260507142323 13 128 6.4 9.7 0.00 0.00 0.00 63 1020.2
20260507141338 13 92 6.4 16.1 0.00 0.00 0.00 62 1020.3
20260507140333 12 75 1.6 17.7 0.00 0.00 0.00 62 1020.3
20260507135332 12 79 9.7 17.7 0.00 0.00 0.00 63 1020.3
20260507134330 12 125 6.4 17.7 0.00 0.00 0.00 64 1020.2
20260507133325 11 98 9.7 16.1 0.00 0.00 0.00 64 1020.2
20260507132339 10 127 4.8 9.7 0.00 0.00 0.00 64 1020.2
20260507131338 10 125 4.8 14.5 0.00 0.00 0.00 64 1020.1
20260507130333 10 128 4.8 14.5 0.00 0.00 0.00 64 1020.1
20260507125328 10 130 8.0 12.9 0.00 0.00 0.00 64 1020.1
20260507124327 10 123 4.8 11.3 0.00 0.00 0.00 62 1019.9
20260507123325 10 119 0.0 8.0 0.00 0.00 0.00 61 1019.5
20260507122339 10 101 1.6 8.0 0.00 0.00 0.00 59 1019.5
20260507121334 10 117 3.2 9.7 0.00 0.00 0.00 57 1019.2
20260507120333 11 113 0.0 11.3 0.00 0.00 0.00 54 1019.2
20260507115328 12 117 1.6 9.7 0.00 0.00 0.00 48 1019.1
20260507114323 13 41 0.0 3.2 0.00 0.00 0.00 45 1018.7
20260507113322 14 126 0.0 8.0 0.00 0.00 0.00 38 1018.6
20260507112339 15 19 0.0 16.1 0.00 0.00 0.00 36 1018.2
20260507111334 15 24 6.4 17.7 0.00 0.00 0.00 35 1018.1
20260507110333 15 294 3.2 8.0 0.00 0.00 0.00 35 1018.1
20260507105328 16 25 0.0 14.5 0.00 0.00 0.00 33 1018.0
20260507104326 17 360 3.2 19.3 0.00 0.00 0.00 34 1018.2
20260507103321 17 76 0.0 3.2 0.00 0.00 0.00 33 1018.0
20260507102339 17 75 0.0 4.8 0.00 0.00 0.00 32 1017.7
20260507101334 17 73 0.0 1.6 0.00 0.00 0.00 33 1017.6
20260507100329 17 76 0.0 0.0 0.00 0.00 0.00 34 1017.5
20260507095328 17 82 0.0 1.6 0.00 0.00 0.00 35 1017.6
20260507094326 16 82 0.0 3.2 0.00 0.00 0.00 36 1018.4
20260507093324 16 108 0.0 0.0 0.00 0.00 0.00 39 1018.4
20260507092322 16 109 0.0 0.0 0.00 0.00 0.00 44 1018.4
20260507091337 16 109 0.0 0.0 0.00 0.00 0.00 43 1018.4
20260507090332 16 109 0.0 1.6 0.00 0.00 0.00 49 1018.4
20260507085327 16 109 0.0 0.0 0.00 0.00 0.00 51 1018.6
20260507084326 16 109 0.0 1.6 0.00 0.00 0.00 52 1018.7
20260507083324 16 109 0.0 0.0 0.00 0.00 0.00 52 1018.7
20260507082338 16 113 0.0 4.8 0.00 0.00 0.00 53 1018.8
20260507081337 16 107 0.0 3.2 0.00 0.00 0.00 52 1018.7
20260507080332 16 107 0.0 3.2 0.00 0.00 0.00 52 1018.8
20260507075327 16 107 0.0 1.6 0.00 0.00 0.00 52 1018.9
20260507074322 17 108 0.0 1.6 0.00 0.00 0.00 52 1019.0
20260507073321 17 109 0.0 1.6 0.00 0.00 0.00 50 1019.1
20260507072338 17 109 0.0 0.0 0.00 0.00 0.00 46 1019.1
20260507071333 17 109 1.6 4.8 0.00 0.00 0.00 42 1019.2
20260507070332 18 119 0.0 9.7 0.00 0.00 0.00 34 1019.2
20260507065327 18 9 0.0 14.5 0.00 0.00 0.00 31 1018.8
20260507064325 18 17 6.4 14.5 0.00 0.00 0.00 28 1018.8
20260507063324 18 20 0.0 1.6 0.00 0.00 0.00 27 1018.8
20260507062338 18 36 0.0 3.2 0.00 0.00 0.00 27 1018.7
20260507061333 18 15 0.0 3.2 0.00 0.00 0.00 29 1018.8
20260507060328 18 101 0.0 3.2 0.00 0.00 0.00 30 1018.7
20260507055327 18 101 0.0 4.8 0.00 0.00 0.00 29 1018.6
20260507054325 18 101 3.2 8.0 0.00 0.00 0.00 29 1018.6
20260507053340 18 92 0.0 1.6 0.00 0.00 0.00 29 1018.6
20260507052335 18 98 4.8 6.4 0.00 0.00 0.00 28 1018.6
20260507051330 18 101 1.6 8.0 0.00 0.00 0.00 27 1018.6
20260507050322 19 182 0.0 4.8 0.00 0.00 0.00 27 1018.6
20260507045337 19 233 3.2 6.4 0.00 0.00 0.00 25 1018.6
20260507044335 18 236 0.0 0.0 0.00 0.00 0.00 27 1018.6
20260507043332 17 236 0.0 0.0 0.00 0.00 0.00 27 1018.5
20260507042330 17 236 0.0 0.0 0.00 0.00 0.00 27 1018.3
20260507041329 17 236 0.0 3.2 0.00 0.00 0.00 28 1018.2
20260507040326 17 236 1.6 4.8 0.00 0.00 0.00 27 1018.0
20260507035320 17 236 0.0 0.0 0.00 0.00 0.00 29 1018.0
20260507034336 17 235 0.0 0.0 0.00 0.00 0.00 28 1017.8
20260507033335 17 235 0.0 0.0 0.00 0.00 0.00 28 1017.7
20260507032329 17 235 0.0 0.0 0.00 0.00 0.00 28 1017.6
20260507031324 18 235 0.0 0.0 0.00 0.00 0.00 28 1017.4
20260507030340 18 235 0.0 0.0 0.00 0.00 0.00 28 1017.3
20260507025333 18 235 0.0 0.0 0.00 0.00 0.00 26 1017.1
20260507024329 19 235 0.0 0.0 0.00 0.00 0.00 26 1017.1
20260507023330 20 235 0.0 0.0 0.00 0.00 0.00 25 1016.8
20260507022324 20 232 0.0 0.0 0.00 0.00 0.00 25 1016.4
20260507021339 21 229 0.0 0.0 0.00 0.00 0.00 24 1016.4
20260507020334 21 207 0.0 0.0 0.00 0.00 0.00 23 1016.2
20260507015333 22 205 0.0 0.0 0.00 0.00 0.00 21 1016.0
20260507014328 22 205 0.0 0.0 0.00 0.00 0.00 22 1016.0
20260507013321 23 205 0.0 0.0 0.00 0.00 0.00 21 1015.8
20260507012340 23 205 0.0 4.8 0.00 0.00 0.00 21 1015.7
20260507011334 24 206 0.0 3.2 0.00 0.00 0.00 20 1015.7
20260507010329 24 206 0.0 8.0 0.00 0.00 0.00 20 1015.4
20260507005325 25 214 3.2 8.0 0.00 0.00 0.00 19 1015.3
20260507004340 25 208 0.0 9.7 0.00 0.00 0.00 19 1015.3
20260507003332 25 206 4.8 8.0 0.00 0.00 0.00 19 1015.2
20260507002325 25 207 4.8 11.3 0.00 0.00 0.00 19 1015.1
20260507001325 25 197 1.6 9.7 0.00 0.00 0.00 19 1015.1
20260507000339 25 201 4.8 9.7 0.00 0.00 0.00 19 1015.0
20260506235334 25 210 4.8 9.7 0.00 0.00 0.00 19 1015.2
20260506234330 24 223 0.0 9.7 0.00 0.00 0.00 19 1015.2
20260506233327 25 235 4.8 8.0 0.00 0.00 0.00 19 1015.2
20260506232321 25 244 1.6 9.7 0.00 0.00 0.00 20 1015.3
20260506231338 25 165 4.8 12.9 0.00 0.00 0.00 18 1015.2
20260506230337 25 273 0.0 8.0 0.00 0.00 0.00 20 1015.2
20260506225332 25 284 0.0 9.7 0.00 0.00 0.00 19 1015.3
20260506224327 24 310 8.0 17.7 0.00 0.00 0.00 19 1015.2
20260506223327 25 274 0.0 9.7 0.00 0.00 0.00 17 1015.2
20260506222324 24 267 4.8 25.7 0.00 0.00 0.00 18 1015.3
20260506221338 25 319 8.0 24.1 0.00 0.00 0.00 17 1015.4
20260506220333 25 289 11.3 27.4 0.00 0.00 0.00 16 1015.3
20260506215332 25 221 4.8 27.4 0.00 0.00 0.00 15 1015.1
20260506214327 25 298 12.9 24.1 0.00 0.00 0.00 15 1015.2
20260506213325 25 273 8.0 24.1 0.00 0.00 0.00 16 1015.4
20260506212324 25 257 0.0 22.5 0.00 0.00 0.00 16 1015.4
20260506211322 26 229 8.0 24.1 0.00 0.00 0.00 15 1015.5
20260506210339 26 274 11.3 22.5 0.00 0.00 0.00 18 1015.6
20260506205334 26 283 9.7 16.1 0.00 0.00 0.00 18 1015.5
20260506204332 26 275 12.9 19.3 0.00 0.00 0.00 17 1015.6
20260506203330 26 324 0.0 0.0 0.00 0.00 0.00 18 1015.7
20260506202324 26 275 6.4 24.1 0.00 0.00 0.00 20 1015.9
20260506201324 26 250 0.0 14.5 0.00 0.00 0.00 19 1015.8
20260506200321 25 272 6.4 22.5 0.00 0.00 0.00 19 1015.9
20260506195319 25 302 19.3 30.6 0.00 0.00 0.00 18 1016.0
20260506194322 25 225 3.2 24.1 0.00 0.00 0.00 20 1016.2
20260506193337 25 299 12.9 27.4 0.00 0.00 0.00 19 1016.2
20260506192330 25 294 14.5 24.1 0.00 0.00 0.00 22 1016.2
20260506191325 25 237 1.6 20.9 0.00 0.00 0.00 20 1016.4
20260506190325 25 275 17.7 24.1 0.00 0.00 0.00 22 1016.4